Wetbulb
40.94 40.42 39.96 39.88 40.54 40.95 41.75 42.53 42.90 43.40 44.00 44.82 44.38 44.04 43.74 43.79 44.19 40.45 35.48 39.57 36.01 29.80 25.67 28.87 29.42 26.85 26.74 26.48 19.56 20.11 18.22 18.57 11.81 11.03 12.46 11.09 16.45 15.67 18.89 22.45 21.19 20.76 17.36 15.82 20.36 13.13 7.95 34.00 31.17 26.37 31.63 35.21 36.18 36.95
40.21 39.50 40.38 40.60 40.79 41.47 41.60 42.23 42.28 42.41 42.54 42.71 43.15 43.70 43.58 43.15 43.20 42.64 35.91 36.31 40.01 33.57 28.94 30.74 32.27 32.63 31.25 30.05 27.43 26.33 19.77 24.26 23.82 17.73 13.20 15.51 10.89 12.69 18.15 14.50 27.14 21.08 26.11 23.65 22.87 21.36 29.26 32.49 31.17 34.45 36.65 35.91 36.74 36.61
40.93 40.88 40.36 39.71 39.91 40.14 40.86 41.77 42.03 42.26 42.21 42.18 42.46 42.75 43.08 43.20 43.36 42.19 37.46 34.90 35.97 31.11 25.61 24.10 25.97 30.98 33.71 33.72 33.77 25.56 22.24 27.19 25.20 25.68 19.54 17.91 17.91 20.22 15.06 18.78 22.70 26.43 31.86 26.95 26.73 27.87 29.44 31.16 34.10 36.05 37.87 37.82 38.98 39.28
39.16 39.87 40.65 40.78 40.50 40.75 40.93 41.04 41.69 41.60 41.04 41.29 41.88 42.39 42.03 41.88 42.19 42.03 35.53 34.03 35.81 30.36 22.00 21.98 30.36 28.02 32.00 31.55 31.50 32.02 29.66 27.83 26.77 24.58 18.07 18.83 20.02 24.15 20.40 22.32 22.32 26.32 26.99 24.77 25.04 27.94 29.46 31.87 34.64 34.56 34.99 37.35 36.76 37.21
37.58 38.45 39.06 39.47 40.37 40.75 40.76 40.86 41.24 41.32 40.92 40.93 40.81 41.32 40.76 41.82 42.14 39.23 38.16 36.64 37.67 30.08 17.93 22.09 29.06 30.88 31.21 31.50 29.47 29.85 29.35 27.26 24.23 22.78 23.89 19.45 23.76 24.74 24.08 25.64 23.71 27.96 25.76 22.81 22.32 28.88 27.65 29.65 32.39 35.45 35.00 34.39 34.76 34.24
37.14 37.14 37.61 37.80 38.29 38.88 39.80 40.56 40.49 40.78 40.79 40.51 40.74 40.69 41.28 41.53 40.32 32.49 20.91 30.85 37.62 35.66 27.81 14.91 24.51 26.53 28.28 28.56 27.62 26.82 28.27 28.51 28.64 25.99 23.15 25.71 28.82 28.33 23.17 21.73 28.25 29.67 30.27 30.74 28.38 32.27 31.97 32.51 33.26 34.04 33.10 33.69 33.62 33.38
37.53 37.37 37.04 37.23 37.34 37.89 38.27 38.98 39.31 40.33 40.82 40.94 40.73 40.69 41.02 41.43 35.74 27.63 23.90 28.54 39.32 36.97 24.55 19.80 19.77 26.22 28.68 29.84 24.94 22.09 27.90 24.48 25.56 27.57 25.63 25.60 28.24 30.88 25.78 21.67 28.69 30.73 32.14 31.85 33.04 32.44 29.05 31.16 29.69 32.58 32.29 32.44 33.22 33.02
38.29 37.89 37.65 37.21 36.91 37.78 37.80 37.99 38.27 38.87 39.43 40.37 41.02 40.55 40.97 41.34 40.12 35.33 34.79 40.20 38.08 32.32 29.04 20.64 19.89 20.61 28.19 20.89 24.38 30.57 24.69 25.39 28.17 24.91 27.79 27.54 27.22 28.67 24.23 27.01 28.21 30.61 34.21 34.12 33.79 33.47 31.11 31.99 31.72 31.50 31.93 30.96 29.98 29.93
36.83 37.66 38.51 37.47 36.83 37.14 37.10 37.75 38.32 38.69 38.72 39.57 40.81 40.60 36.27 33.79 32.18 31.18 38.80 40.83 37.98 29.12 15.78 21.19 16.05 9.67 26.40 24.76 30.60 31.04 31.37 25.15 30.85 25.75 26.06 26.99 24.90 21.54 26.18 27.14 30.95 33.32 33.05 32.31 31.31 32.75 33.51 30.98 30.11 28.97 29.00 28.76 28.54 28.60
37.02 37.17 37.73 37.81 37.02 36.83 36.54 36.79 37.59 38.42 38.17 38.85 37.41 29.18 26.16 30.49 38.29 39.45 36.07 30.91 30.18 30.16 27.57 21.56 22.13 15.98 22.95 20.95 16.47 22.61 26.70 24.58 19.71 22.21 26.07 23.28 22.82 28.47 29.89 32.18 33.74 32.67 32.22 32.46 28.43 28.21 28.03 27.89 28.24 29.06 29.68 30.82 30.53 28.38
36.16 37.14 37.26 37.96 37.12 36.69 36.53 36.75 36.92 37.39 37.64 33.15 31.38 28.51 32.62 39.08 35.64 32.09 27.01 25.75 24.99 22.74 23.72 24.33 22.87 20.20 25.86 21.46 23.41 26.95 17.80 21.57 19.08 21.03 21.82 20.16 21.62 26.73 30.93 32.98 33.64 32.48 31.05 28.52 28.43 29.28 30.29 29.91 29.54 29.62 29.84 29.92 29.14 29.18
36.05 37.10 36.88 37.52 37.14 36.52 36.35 37.05 37.03 33.19 32.37 34.95 34.73 36.21 36.10 32.41 29.00 23.82 20.62 24.58 24.06 21.69 23.68 23.96 24.55 23.30 25.63 28.34 24.45 24.39 22.14 23.80 18.89 24.84 22.03 17.00 24.16 31.30 29.92 29.83 29.79 29.91 29.53 29.72 31.54 30.54 30.74 30.44 30.29 30.10 30.00 29.38 29.40 30.11
35.58 36.53 36.59 36.74 37.24 36.63 36.52 37.16 37.63 37.20 36.87 34.48 32.86 29.07 26.21 25.83 18.69 17.91 9.19 19.45 21.46 25.49 24.64 25.33 27.74 28.36 28.84 29.75 27.07 24.61 19.19 16.44 25.62 17.44 19.32 22.13 24.56 28.33 28.21 28.51 28.28 29.28 31.21 30.68 30.60 30.95 30.62 30.33 31.18 30.28 29.58 29.93 29.99 29.19
35.39 36.17 35.98 36.07 36.77 37.02 36.80 36.79 37.30 36.72 32.48 27.96 25.01 18.45 20.53 15.35 19.32 20.97 21.63 23.03 26.11 28.73 29.92 30.52 28.43 27.49 28.50 26.98 27.00 23.88 26.70 25.91 16.51 10.54 17.40 20.69 26.10 27.85 27.81 28.62 27.97 26.89 28.70 29.67 29.69 29.69 29.59 29.56 29.29 30.20 29.87 29.60 28.92 27.69
35.16 35.68 35.86 35.23 36.02 36.76 37.10 36.51 37.28 36.21 30.08 25.65 25.26 14.04 18.48 22.89 24.42 25.98 26.31 25.75 26.90 28.52 26.43 24.52 25.93 25.54 24.91 24.21 25.52 23.76 18.24 17.55 18.21 14.16 17.44 22.12 26.70 26.58 26.15 27.47 24.77 23.51 23.85 28.76 29.74 29.12 28.72 29.02 29.27 28.79 29.61 29.31 28.85 28.10
34.75 34.55 32.20 35.21 36.04 36.64 37.09 35.39 35.05 34.17 30.73 27.77 25.02 21.09 21.65 22.48 20.74 23.87 26.00 26.31 28.67 27.39 24.85 25.19 24.92 21.70 21.82 23.93 22.36 18.70 19.65 12.23 15.05 19.13 22.19 24.21 26.35 27.30 27.57 28.13 27.84 28.03 25.66 25.43 28.08 29.34 29.18 28.47 28.69 29.13 29.01 28.87 28.64 28.42
34.32 28.45 34.08 35.21 36.05 36.53 36.29 32.13 31.19 28.07 26.55 24.61 21.53 23.29 22.50 23.06 23.12 24.56 26.26 26.26 28.19 25.20 18.61 24.06 18.61 19.81 22.50 18.35 20.75 22.18 16.28 16.09 20.50 22.27 23.60 25.82 26.89 28.94 29.29 28.18 26.81 26.47 25.43 24.36 25.06 27.48 28.86 29.29 29.91 27.08 17.45 21.73 28.83 28.73
27.76 30.19 34.59 34.93 34.27 34.28 31.73 30.91 26.91 24.48 21.29 24.92 22.42 19.87 24.39 26.31 25.24 25.13 26.40 26.70 26.00 24.01 22.00 20.05 20.87 19.65 13.46 17.63 16.52 18.25 19.65 23.69 25.11 25.30 26.47 27.19 28.83 28.25 26.43 24.97 25.86 24.80 24.32 20.58 21.35 24.45 28.47 27.85 27.58 27.26 22.90 23.42 28.43 28.22
29.92 30.54 33.75 34.53 33.57 29.63 24.77 25.91 27.35 19.19 19.33 22.88 23.00 24.87 25.89 25.89 27.52 28.40 27.56 27.67 27.56 26.59 20.27 21.22 20.73 17.39 19.62 21.40 21.10 18.18 20.65 25.15 22.13 21.49 21.95 25.41 25.96 23.48 22.09 22.20 22.77 20.67 20.12 23.86 26.57 25.58 20.95 22.70 26.89 23.90 24.97 27.44 27.07 27.81
33.84 34.05 34.14 34.28 33.61 26.42 22.47 22.29 27.64 22.67 19.72 20.91 24.70 22.95 24.00 24.29 26.12 25.59 25.81 26.13 25.33 24.86 20.64 18.83 19.76 22.19 18.59 20.58 23.90 26.67 27.19 27.36 24.00 18.30 16.31 15.32 17.52 19.77 21.40 20.39 17.78 21.55 22.17 22.83 20.75 20.61 19.35 18.66 18.01 22.40 23.40 23.43 24.17 26.21
30.82 28.86 32.46 31.86 29.86 26.84 23.49 21.60 21.14 23.04 23.91 21.14 24.09 24.14 22.17 25.03 23.15 22.60 23.33 26.04 22.80 20.40 18.86 21.57 19.06 22.92 25.03 23.49 22.35 23.60 23.47 24.42 23.17 21.92 18.83 11.88 15.11 18.74 18.06 19.72 22.38 19.22 17.46 14.04 13.36 12.84 12.77 14.22 18.13 20.15 19.24 19.62 21.67 22.67
25.51 32.00 26.23 29.79 25.75 25.74 22.96 23.84 21.34 22.98 20.32 20.48 19.77 20.76 17.74 17.22 18.10 20.68 24.79 22.25 19.69 22.23 21.59 21.85 24.59 24.90 23.49 22.03 21.67 24.14 22.84 25.53 23.89 20.59 19.24 18.20 14.36 16.10 15.11 16.06 16.47 11.75 13.33 11.17 15.37 11.92 13.42 16.31 17.22 17.64 17.29 16.88 18.84 19.76
30.56 28.19 27.03 26.57 20.80 20.11 17.00 22.85 18.56 20.09 12.75 14.40 19.77 15.93 13.25 13.20 18.56 23.17 15.96 19.02 20.22 21.47 24.35 23.07 21.60 21.61 21.86 21.10 23.30 22.68 22.87 22.73 18.09 15.24 15.39 15.00 15.63 16.78 18.14 15.66 16.03 10.12 10.31 11.64 15.36 14.64 12.94 11.31 13.11 12.49 14.84 15.89 16.54 15.00
30.59 24.94 20.26 19.61 16.34 7.72 17.90 12.41 19.67 18.29 17.67 15.27 14.64 11.31 14.29 12.59 18.80 12.65 8.39 8.51 18.44 16.26 18.41 19.74 21.26 17.72 19.94 21.67 19.38 20.08 17.45 16.48 14.54 12.47 11.94 14.27 12.83 12.45 16.41 15.03 14.59 13.96 13.73 14.18 13.09 10.18 9.73 5.70 6.88 11.33 10.71 10.82 11.80 12.93
17.84 17.87 17.58 12.83 18.47 5.98 1.40 1.95 8.78 12.74 -0.45 4.18 4.47 0.37 2.65 12.84 10.06 11.64 11.28 15.56 12.51 11.08 9.18 15.15 18.88 18.61 17.45 18.69 17.95 15.73 9.45 13.03 13.12 9.79 5.79 9.14 9.19 9.20 9.59 11.88 11.23 10.10 12.36 4.33 -0.02 1.59 2.38 3.20 2.34 4.84 9.05 6.94 10.65 11.70
11.89 14.92 12.94 8.52 5.11 6.90 6.23 -1.64 -4.83 0.19 3.24 0.16 3.71 10.36 13.33 9.39 2.45 2.12 6.81 9.06 6.64 7.95 7.91 14.39 15.06 15.43 16.41 17.87 15.39 12.10 10.63 9.71 12.13 8.56 4.84 6.60 6.19 4.49 4.03 2.60 2.48 3.82 6.87 1.80 -2.01 -4.91 1.44 3.62 3.16 5.37 6.11 8.48 7.69 7.25
7.91 9.35 15.93 19.03 16.82 16.08 5.81 5.58 13.01 4.76 -1.72 -0.61 1.80 2.35 8.03 9.01 0.86 7.13 8.71 9.89 12.68 12.97 15.59 18.87 20.57 20.41 16.06 11.82 11.25 10.57 13.56 14.55 12.73 11.94 11.22 7.46 5.52 4.83 5.83 2.11 1.53 3.74 3.34 0.63 -5.45 -6.90 -3.82 -0.74 -0.02 2.51 4.35 5.84 5.72 4.77
15.52 15.42 7.00 10.51 8.87 14.81 0.66 2.46 -0.52 2.88 10.48 15.60 10.02 6.82 11.49 10.59 10.60 9.68 8.79 8.61 7.49 14.36 15.29 15.10 15.50 14.31 12.43 9.98 10.89 13.46 12.10 12.11 12.20 11.90 10.94 9.08 5.31 0.93 -1.04 -0.13 0.98 5.24 -7.26 -11.61 -10.89 -11.07 -7.81 -5.09 -1.82 -0.37 -0.23 0.95 3.56 5.39
7.94 13.13 11.20 9.26 7.13 8.79 3.72 3.40 6.01 11.43 15.17 14.01 10.54 11.03 8.57 17.39 16.67 17.65 14.93 11.37 10.15 12.26 9.40 8.21 6.95 7.62 9.39 8.55 6.21 6.82 9.79 11.01 9.32 3.77 1.62 -0.23 -3.09 2.25 -2.26 -3.46 -9.26 -11.98 -14.33 -12.34 -3.46 1.98 1.80 1.80 -3.46 -1.65 -2.01 -2.12 0.43 1.81
5.20 13.72 4.94 -2.19 -2.41 -1.24 3.08 7.88 3.62 5.33 13.35 14.15 14.25 14.05 13.73 11.31 15.23 12.93 9.32 7.50 8.83 4.18 -0.63 -0.04 -0.56 -0.14 0.98 3.50 0.05 2.52 0.79 0.08 1.12 5.14 3.38 2.83 3.87 -3.85 -10.89 -11.80 -14.15 -15.06 -16.69 -17.96 -16.51 -11.14 -4.73 -11.99 -9.82 -13.12 -10.49 -5.66 -5.45 -2.06
12.81 9.16 1.30 2.47 -0.22 1.94 3.07 2.14 -0.24 1.08 3.75 6.69 3.60 9.41 10.84 8.41 7.00 6.26 5.43 1.66 0.60 1.34 3.30 -0.56 -3.64 -5.28 -0.71 -2.55 -2.21 1.11 0.24 -2.96 -5.63 -0.78 0.13 -3.15 -8.71 -13.97 -15.60 -17.23 -18.50 -19.05 -18.32 -17.78 -18.69 -19.23 -18.50 -18.87 -19.95 -18.14 -9.67 -7.72 -7.08 -6.69
3.88 3.57 1.32 -4.13 5.51 0.90 3.61 9.57 7.49 7.55 4.10 5.34 5.48 0.52 1.84 5.75 3.84 1.75 0.30 2.47 1.02 -1.46 -2.56 1.79 0.73 0.37 -3.19 -1.43 -0.19 -0.72 2.40 0.99 -3.01 -4.63 -3.05 -6.18 -11.25 -14.88 -17.05 -17.60 -21.77 -18.87 -17.78 -18.87 -20.32 -20.50 -20.14 -20.50 -20.68 -17.42 -13.06 -9.98 -9.27 -8.58
-5.10 -5.72 -1.76 0.63 1.19 1.98 2.71 8.01 10.15 6.56 1.54 2.42 1.34 -2.81 -1.16 4.92 4.99 2.04 4.41 4.74 8.01 9.86 6.34 4.16 1.30 -0.27 4.57 5.77 3.71 0.55 -0.85 -3.14 -4.19 0.53 -4.73 -5.99 -10.20 -11.61 -20.86 -23.76 -23.04 -22.13 -18.88 -21.04 -22.13 -23.04 -19.05 -17.24 -19.41 -16.69 -13.61 -11.98 -10.53 -9.29
MSLP
1019.05 1018.79 1018.79 1018.90 1019.12 1019.26 1019.41 1019.49 1019.59 1019.59 1019.61 1019.67 1019.91 1020.24 1020.45 1020.64 1020.75 1021.31 1021.63 1021.86 1022.31 1022.12 1021.55 1021.29 1021.19 1021.32 1021.67 1021.89 1022.18 1022.09 1022.19 1021.78 1022.11 1022.41 1022.42 1021.74 1020.71 1019.14 1017.77 1015.96 1014.77 1014.21 1013.91 1013.68 1013.44 1012.60 1010.98 1008.94 1008.26 1008.39 1008.26 1007.66 1007.38 1006.53
1018.93 1018.68 1018.66 1018.70 1018.81 1018.94 1019.12 1019.20 1019.29 1019.36 1019.55 1019.68 1019.80 1019.92 1020.07 1020.30 1020.36 1020.61 1021.25 1021.45 1021.64 1021.93 1020.86 1020.45 1020.23 1019.84 1019.90 1020.30 1020.93 1021.66 1021.65 1021.48 1021.26 1021.63 1021.86 1021.61 1020.73 1019.50 1017.87 1016.27 1014.14 1013.69 1013.20 1013.01 1012.47 1010.97 1009.42 1008.68 1008.64 1008.05 1007.67 1007.24 1006.97 1006.49
1018.88 1018.63 1018.54 1018.50 1018.59 1018.75 1018.93 1019.07 1019.15 1019.23 1019.34 1019.43 1019.50 1019.51 1019.69 1019.78 1019.89 1020.05 1020.90 1021.28 1021.79 1021.66 1020.58 1020.16 1019.09 1018.60 1018.69 1018.91 1019.46 1020.46 1020.68 1020.70 1020.66 1020.57 1021.12 1020.96 1020.13 1018.89 1017.65 1015.83 1014.32 1012.96 1012.28 1012.40 1011.86 1009.52 1009.17 1008.52 1008.02 1007.78 1007.39 1006.83 1006.15 1005.97
1019.00 1018.84 1018.66 1018.49 1018.41 1018.49 1018.64 1018.81 1018.90 1019.00 1019.08 1019.19 1019.05 1019.18 1019.41 1019.52 1019.58 1019.67 1020.48 1020.75 1021.11 1021.32 1020.91 1018.94 1018.14 1017.99 1017.34 1017.85 1018.45 1018.64 1019.13 1019.80 1020.11 1020.34 1020.66 1020.25 1019.36 1017.68 1016.56 1015.19 1014.25 1013.40 1012.39 1011.33 1010.26 1009.15 1008.78 1008.04 1007.91 1007.68 1007.06 1006.58 1006.34 1006.20
1018.99 1018.90 1018.82 1018.67 1018.56 1018.45 1018.51 1018.58 1018.64 1018.70 1018.78 1018.83 1018.85 1018.86 1018.97 1019.08 1019.16 1019.46 1019.83 1020.14 1020.07 1020.75 1020.35 1019.08 1018.01 1016.05 1016.04 1016.79 1017.39 1017.93 1018.58 1019.31 1020.05 1020.12 1019.59 1018.83 1017.75 1017.12 1015.56 1014.72 1012.95 1012.25 1011.21 1010.83 1009.33 1008.80 1008.70 1008.32 1008.14 1007.84 1007.50 1007.31 1007.08 1006.92
1018.95 1018.84 1018.79 1018.71 1018.64 1018.61 1018.66 1018.60 1018.53 1018.47 1018.42 1018.47 1018.52 1018.56 1018.62 1018.74 1019.14 1019.73 1020.03 1019.86 1019.63 1020.08 1020.38 1019.81 1017.81 1016.36 1015.95 1016.07 1016.55 1017.32 1017.85 1018.77 1019.00 1018.88 1018.08 1017.08 1016.10 1015.95 1014.72 1012.85 1010.99 1010.42 1009.93 1009.61 1008.93 1008.45 1008.13 1007.75 1007.77 1007.73 1007.94 1008.00 1007.70 1007.54
1018.69 1018.67 1018.62 1018.60 1018.56 1018.55 1018.58 1018.56 1018.47 1018.40 1018.27 1018.10 1018.06 1018.15 1018.25 1018.38 1018.89 1019.21 1019.27 1019.29 1019.31 1020.10 1020.56 1020.03 1018.31 1016.23 1015.69 1015.87 1016.47 1017.25 1017.54 1017.62 1017.86 1017.79 1016.63 1015.80 1015.20 1014.78 1013.42 1011.87 1009.12 1009.67 1009.30 1008.97 1008.67 1008.35 1008.04 1007.89 1008.04 1008.12 1008.17 1008.09 1007.96 1007.91
1018.34 1018.33 1018.39 1018.43 1018.38 1018.35 1018.36 1018.31 1018.21 1018.14 1018.04 1018.02 1017.93 1017.79 1017.89 1018.06 1018.38 1018.50 1018.67 1018.67 1019.22 1019.97 1020.39 1020.01 1018.24 1017.01 1015.57 1015.87 1016.12 1016.05 1016.90 1017.19 1016.72 1016.25 1015.31 1014.51 1014.29 1013.81 1012.16 1009.43 1009.24 1009.07 1008.98 1008.75 1008.74 1008.83 1008.91 1008.77 1008.51 1008.20 1007.94 1007.83 1007.89 1008.03
1018.04 1018.01 1017.96 1018.12 1018.13 1018.08 1018.04 1018.05 1017.98 1017.82 1017.78 1017.74 1017.68 1017.56 1017.99 1018.11 1018.24 1017.80 1017.52 1017.99 1018.45 1019.37 1019.73 1019.00 1018.16 1017.42 1015.69 1015.61 1015.63 1015.41 1015.53 1015.54 1014.82 1014.84 1014.14 1013.76 1012.89 1011.62 1009.33 1009.09 1008.93 1009.00 1009.03 1009.02 1009.08 1008.96 1009.03 1009.05 1008.88 1008.64 1008.42 1008.22 1007.97 1007.69
1017.70 1017.66 1017.66 1017.69 1017.79 1017.80 1017.77 1017.74 1017.71 1017.57 1017.54 1017.52 1017.88 1017.93 1017.84 1017.38 1017.17 1017.46 1017.77 1017.92 1018.20 1017.96 1018.20 1017.62 1017.05 1016.73 1015.94 1015.82 1015.42 1015.46 1015.08 1014.79 1014.38 1013.17 1013.02 1012.72 1010.94 1009.08 1008.66 1008.47 1008.54 1009.10 1009.39 1009.49 1009.50 1009.36 1009.38 1009.27 1009.19 1008.89 1008.62 1008.38 1008.21 1008.15
1017.39 1017.25 1017.19 1017.22 1017.34 1017.40 1017.42 1017.36 1017.36 1017.43 1017.33 1017.53 1017.74 1017.67 1017.14 1016.85 1017.17 1017.12 1016.84 1016.87 1017.17 1016.99 1016.43 1015.66 1015.65 1015.60 1014.96 1015.22 1015.14 1014.94 1014.46 1013.95 1013.59 1012.35 1012.37 1011.70 1010.13 1008.20 1008.02 1008.31 1008.74 1009.21 1009.39 1009.53 1009.66 1009.69 1009.67 1009.63 1009.35 1009.03 1008.73 1008.54 1008.34 1008.03
1017.05 1016.91 1016.76 1016.83 1016.94 1017.00 1017.04 1017.04 1017.11 1017.41 1017.42 1017.63 1017.80 1017.44 1017.22 1016.87 1016.45 1016.54 1016.09 1015.69 1015.54 1014.71 1014.29 1014.33 1014.33 1014.55 1014.09 1014.09 1014.41 1014.15 1013.74 1013.25 1012.42 1011.94 1012.09 1010.91 1008.52 1008.02 1008.46 1008.75 1009.04 1009.23 1009.31 1009.39 1009.43 1009.50 1009.52 1009.52 1009.37 1009.12 1008.85 1008.59 1008.23 1007.90
1016.65 1016.60 1016.42 1016.46 1016.68 1016.58 1016.61 1016.63 1016.72 1017.03 1017.16 1017.27 1017.35 1017.03 1016.81 1016.41 1016.10 1015.46 1015.07 1014.24 1013.72 1013.18 1013.07 1013.23 1013.40 1013.32 1013.57 1013.55 1013.53 1013.21 1012.84 1011.90 1011.37 1011.61 1010.90 1009.45 1008.61 1008.59 1008.76 1009.03 1009.31 1009.35 1009.31 1009.42 1009.35 1009.33 1009.34 1009.29 1009.25 1009.12 1008.82 1008.57 1008.32 1007.98
1016.34 1016.23 1016.11 1016.08 1016.14 1016.18 1016.16 1016.16 1016.06 1016.83 1017.01 1017.08 1016.57 1016.31 1015.83 1015.28 1014.37 1013.26 1012.90 1012.71 1012.49 1012.49 1012.49 1012.48 1012.63 1012.62 1012.42 1012.66 1012.17 1011.57 1011.05 1010.94 1010.95 1011.03 1010.16 1008.88 1008.50 1008.78 1009.06 1009.24 1009.49 1009.59 1009.44 1009.41 1009.28 1009.16 1009.09 1008.96 1008.86 1008.82 1008.68 1008.43 1008.19 1007.82
1016.08 1015.96 1015.78 1015.66 1015.57 1015.60 1015.62 1015.58 1015.76 1015.93 1016.25 1016.18 1015.70 1015.03 1014.20 1013.23 1012.78 1012.56 1012.43 1012.50 1012.16 1012.05 1012.23 1012.51 1012.36 1012.23 1011.95 1011.91 1011.29 1010.73 1010.90 1010.62 1010.41 1010.07 1009.64 1009.01 1008.78 1009.00 1009.30 1009.48 1009.68 1009.80 1009.73 1009.56 1009.38 1009.11 1008.93 1008.79 1008.59 1008.41 1008.30 1008.12 1007.87 1007.49
1015.63 1015.63 1015.46 1015.24 1015.05 1015.00 1015.04 1015.32 1015.54 1015.57 1015.46 1015.10 1014.47 1013.83 1013.32 1013.24 1012.76 1012.43 1012.26 1012.08 1011.75 1011.90 1012.16 1012.20 1011.98 1011.86 1011.22 1010.58 1010.28 1010.14 1010.14 1010.06 1009.69 1009.44 1009.38 1009.26 1009.24 1009.28 1009.37 1009.53 1009.71 1009.87 1009.88 1009.76 1009.42 1009.09 1008.84 1008.66 1008.47 1008.33 1008.14 1007.75 1007.42 1007.25
1015.13 1015.28 1015.07 1015.05 1014.93 1014.69 1014.68 1015.37 1015.43 1014.84 1014.14 1013.43 1013.14 1012.98 1012.98 1013.00 1012.54 1012.16 1011.88 1011.67 1011.62 1012.00 1012.33 1012.15 1011.98 1011.14 1010.40 1010.11 1009.65 1009.34 1009.42 1009.38 1009.18 1009.28 1009.15 1009.05 1009.01 1009.08 1009.21 1009.56 1009.79 1009.80 1009.84 1009.81 1009.54 1009.12 1008.68 1008.42 1008.24 1008.19 1008.42 1007.74 1007.27 1006.84
1015.06 1014.98 1014.73 1014.68 1014.72 1015.01 1014.83 1015.07 1015.11 1014.54 1013.54 1012.59 1012.45 1012.43 1012.26 1011.96 1011.63 1011.60 1011.63 1011.53 1011.73 1011.79 1012.08 1011.85 1011.34 1010.83 1010.05 1009.36 1009.16 1009.12 1008.97 1008.92 1008.90 1009.17 1009.35 1009.05 1009.06 1009.11 1009.30 1009.65 1009.82 1009.98 1009.99 1009.91 1009.67 1009.26 1008.86 1008.65 1008.41 1008.22 1008.04 1007.52 1007.03 1006.48
1014.45 1014.44 1014.32 1014.30 1014.57 1015.05 1014.61 1014.66 1014.43 1013.76 1012.89 1012.58 1012.04 1011.77 1011.52 1011.19 1010.85 1010.64 1010.65 1010.72 1010.83 1010.99 1011.42 1011.33 1010.79 1009.71 1009.30 1008.83 1008.77 1008.71 1008.80 1008.96 1009.20 1009.33 1009.37 1009.38 1009.29 1009.65 1009.84 1009.92 1010.07 1010.19 1010.18 1009.96 1009.63 1009.56 1009.52 1009.21 1008.79 1008.52 1008.11 1007.54 1006.91 1006.22
1013.53 1013.56 1013.57 1013.57 1014.16 1014.44 1014.42 1013.79 1013.34 1013.17 1012.43 1011.78 1011.26 1011.09 1010.90 1010.43 1009.99 1009.92 1010.05 1010.21 1010.50 1010.78 1010.64 1009.89 1009.02 1008.74 1008.47 1008.19 1008.27 1008.27 1008.13 1008.15 1008.92 1009.53 1009.68 1009.80 1009.89 1009.93 1010.08 1010.24 1010.42 1010.36 1010.30 1010.23 1010.18 1010.10 1009.86 1009.43 1009.14 1008.81 1008.38 1007.96 1007.25 1006.25
1012.96 1013.13 1013.17 1013.31 1013.74 1013.79 1013.69 1012.74 1012.57 1012.24 1011.65 1011.32 1010.81 1010.77 1010.59 1010.13 1009.63 1009.47 1009.45 1009.39 1009.79 1009.41 1008.93 1008.21 1008.01 1007.93 1007.50 1007.49 1007.46 1007.62 1007.81 1008.03 1008.45 1008.65 1009.16 1009.89 1010.18 1010.21 1010.38 1010.41 1010.47 1010.69 1010.92 1010.98 1010.91 1010.58 1010.39 1010.11 1009.63 1009.17 1008.77 1008.21 1007.48 1006.70
1012.47 1012.48 1012.80 1012.89 1013.00 1012.87 1012.63 1012.45 1012.00 1011.63 1011.71 1011.16 1011.06 1011.01 1010.54 1010.16 1009.61 1009.08 1008.84 1008.96 1008.35 1007.76 1007.68 1007.30 1007.12 1007.08 1007.17 1007.16 1007.02 1006.99 1007.13 1007.62 1008.31 1008.77 1009.21 1009.69 1010.32 1010.50 1010.66 1010.78 1010.94 1011.35 1011.41 1011.35 1011.18 1011.03 1010.72 1010.39 1010.03 1009.57 1009.02 1008.31 1007.62 1006.85
1011.87 1012.18 1012.36 1012.22 1012.19 1012.22 1012.22 1012.03 1012.12 1011.68 1011.78 1011.55 1011.11 1010.86 1010.42 1009.91 1008.95 1008.23 1008.35 1007.48 1006.89 1006.41 1006.40 1006.25 1006.18 1006.26 1006.54 1006.53 1006.72 1007.05 1007.46 1007.88 1008.62 1009.26 1009.69 1010.12 1010.41 1010.62 1010.86 1011.12 1011.29 1011.66 1011.78 1011.62 1011.49 1011.30 1011.18 1010.92 1010.45 1009.95 1009.22 1008.51 1007.80 1006.97
1011.67 1011.47 1011.42 1011.50 1011.75 1012.28 1012.18 1012.34 1012.15 1011.90 1011.80 1011.76 1011.72 1011.24 1010.60 1010.17 1009.44 1008.89 1008.48 1007.64 1006.84 1006.49 1006.40 1006.01 1006.17 1006.49 1006.81 1006.95 1007.23 1007.55 1008.11 1008.40 1009.01 1009.67 1010.02 1010.44 1010.92 1011.26 1011.30 1011.53 1011.73 1011.93 1012.03 1011.96 1011.87 1011.87 1011.65 1011.46 1010.82 1010.16 1009.56 1008.85 1008.08 1007.33
1011.41 1010.74 1010.80 1010.98 1011.39 1012.32 1012.58 1012.51 1012.29 1012.33 1012.59 1012.13 1012.04 1011.69 1010.82 1010.49 1010.09 1009.76 1009.14 1007.88 1007.63 1007.18 1006.54 1006.26 1006.19 1006.26 1006.68 1007.07 1007.64 1008.15 1008.64 1008.79 1009.36 1010.13 1010.52 1010.79 1011.19 1011.63 1011.86 1012.03 1012.18 1012.28 1012.36 1012.48 1012.51 1012.52 1012.25 1011.62 1011.15 1010.52 1009.81 1009.14 1008.41 1007.52
1010.48 1009.79 1010.06 1010.21 1011.01 1011.84 1012.35 1012.97 1013.36 1012.87 1012.52 1012.54 1011.99 1011.01 1010.38 1010.27 1010.36 1009.31 1007.55 1006.90 1006.70 1006.93 1006.64 1006.36 1006.32 1006.69 1007.05 1007.30 1007.83 1008.37 1008.59 1008.71 1009.27 1010.18 1010.71 1010.89 1011.27 1011.67 1012.25 1012.62 1012.77 1012.69 1012.62 1012.79 1012.93 1012.98 1012.59 1012.00 1011.41 1010.73 1009.92 1009.15 1008.55 1007.88
1009.64 1009.63 1009.70 1009.78 1010.08 1010.68 1011.68 1011.94 1011.96 1012.30 1012.39 1011.92 1011.30 1010.92 1010.52 1010.20 1009.46 1007.76 1006.88 1006.56 1006.45 1006.27 1006.15 1006.15 1006.31 1006.62 1007.10 1007.82 1008.07 1008.23 1008.38 1008.82 1009.25 1009.75 1010.22 1010.89 1011.39 1011.72 1012.15 1012.69 1013.02 1012.89 1012.69 1012.91 1013.13 1013.07 1012.80 1012.14 1011.53 1010.90 1010.13 1009.14 1008.60 1008.04
1008.97 1009.12 1009.58 1009.93 1010.03 1010.15 1011.02 1011.45 1011.55 1011.65 1011.10 1010.68 1010.28 1010.09 1009.53 1008.67 1008.31 1008.41 1008.35 1007.62 1007.17 1006.90 1006.84 1006.91 1006.93 1007.16 1007.63 1008.16 1008.44 1008.75 1009.38 1009.75 1010.12 1010.53 1011.09 1011.70 1012.08 1012.38 1012.57 1012.72 1012.75 1012.75 1012.89 1012.95 1012.97 1012.94 1012.32 1011.73 1011.30 1010.79 1010.33 1009.58 1008.52 1007.76
1008.81 1008.93 1009.59 1010.34 1010.60 1010.47 1010.81 1010.91 1010.86 1010.19 1009.28 1009.55 1009.65 1009.09 1008.39 1007.86 1007.65 1007.56 1007.84 1008.39 1008.05 1007.83 1008.00 1008.22 1008.60 1008.57 1008.90 1009.28 1009.55 1009.68 1009.83 1010.11 1010.66 1011.30 1011.90 1012.31 1012.72 1012.89 1012.99 1013.03 1013.09 1013.05 1013.06 1013.02 1012.42 1012.08 1011.66 1011.13 1010.77 1010.45 1010.27 1009.74 1008.81 1007.85
1008.40 1008.46 1009.47 1010.27 1010.77 1010.69 1010.02 1009.57 1009.65 1009.31 1008.87 1008.79 1008.56 1008.50 1008.28 1007.92 1007.54 1007.65 1008.03 1008.42 1008.71 1008.93 1008.90 1008.91 1009.08 1009.23 1009.82 1010.04 1010.67 1010.85 1010.92 1010.85 1010.93 1011.28 1011.63 1012.06 1012.45 1012.92 1013.34 1013.71 1013.91 1013.40 1013.30 1013.38 1013.20 1012.53 1011.80 1011.58 1011.27 1010.98 1010.42 1009.74 1008.97 1008.13
1007.39 1008.19 1008.80 1009.35 1010.10 1009.49 1008.98 1008.80 1009.11 1009.16 1008.89 1008.92 1008.84 1009.02 1008.82 1008.62 1007.90 1007.43 1007.78 1008.13 1008.59 1008.93 1009.19 1009.60 1009.61 1009.73 1009.99 1010.34 1010.74 1011.19 1011.40 1011.47 1011.44 1011.58 1011.81 1012.25 1012.83 1013.40 1013.60 1013.43 1013.39 1013.40 1013.45 1013.65 1013.55 1013.14 1012.81 1012.55 1012.34 1012.13 1011.21 1010.38 1009.56 1008.76
1007.35 1007.86 1008.52 1009.06 1008.88 1008.69 1008.42 1008.76 1008.79 1009.13 1009.12 1009.43 1009.45 1009.46 1009.52 1009.60 1009.35 1007.80 1007.50 1007.81 1008.42 1008.84 1008.74 1009.03 1009.33 1009.60 1009.87 1010.04 1010.29 1010.50 1010.64 1011.28 1011.93 1012.20 1012.38 1012.78 1013.12 1013.14 1013.23 1013.30 1013.34 1013.44 1013.66 1014.12 1013.81 1013.54 1013.30 1013.16 1013.06 1012.61 1011.85 1010.90 1009.99 1009.08
1007.27 1007.77 1007.79 1008.26 1008.52 1008.46 1008.22 1008.40 1008.62 1008.99 1009.48 1009.61 1009.59 1009.40 1009.40 1009.53 1009.42 1007.97 1007.28 1007.25 1007.38 1007.43 1007.91 1008.40 1008.81 1009.18 1009.62 1010.08 1010.56 1011.09 1011.41 1011.85 1012.21 1012.51 1012.75 1012.96 1013.16 1013.34 1013.45 1013.56 1013.62 1013.72 1014.00 1014.25 1014.13 1013.88 1013.69 1013.43 1013.32 1012.78 1012.05 1011.23 1010.31 1009.34
Wind_Speed
7 4 2 1 5 8 9 10 8 8 8 8 7 8 9 9 10 5 2 7 4 3 5 7 6 6 2 3 4 4 6 3 3 1 3 4 3 4 4 6 7 4 1 4 3 3 6 2 9 4 3 4 11 18
5 5 4 5 6 6 4 3 3 4 3 4 6 10 8 9 11 7 2 3 6 6 5 4 7 12 15 18 6 5 7 2 2 2 0 1 2 3 3 4 4 4 3 4 4 5 6 7 5 10 6 6 8 14
9 8 4 1 2 2 3 5 6 6 7 9 11 10 10 9 9 6 3 4 2 3 5 1 12 11 8 14 13 8 3 6 4 4 3 4 6 3 3 6 5 5 2 3 4 4 6 9 8 4 7 10 9 9
7 8 10 8 5 4 4 5 6 6 3 6 4 5 7 8 9 8 3 4 3 2 4 7 2 4 6 7 12 17 13 1 1 3 3 4 3 4 4 6 5 5 6 6 12 16 9 4 2 9 14 5 6 7
5 6 8 9 10 8 6 5 5 5 6 8 9 9 11 11 10 4 2 4 5 4 4 7 9 12 7 14 11 13 13 9 3 2 4 4 4 4 6 5 9 6 7 4 10 11 6 8 4 7 5 6 7 7
4 5 5 5 7 7 7 8 7 7 7 8 9 10 9 8 3 4 4 2 3 3 3 4 5 5 2 7 9 11 11 6 4 4 4 5 6 4 5 4 6 9 7 10 12 10 13 12 4 3 2 5 6 6
6 6 6 5 6 6 7 7 6 7 10 7 8 9 9 7 4 4 6 5 7 4 1 5 5 5 2 3 2 3 7 3 4 3 5 4 3 6 3 13 18 11 14 13 10 8 5 5 4 4 2 4 5 5
8 8 7 6 6 6 7 7 7 8 7 9 11 8 8 7 6 5 2 14 9 3 1 4 6 5 2 1 2 4 4 3 6 4 3 3 2 5 8 9 6 5 5 5 4 4 3 5 6 7 8 7 8 6
10 10 10 8 6 7 7 6 8 9 8 8 9 7 2 1 2 4 7 18 3 4 4 3 3 5 3 1 1 2 3 4 4 5 4 4 4 8 8 6 4 3 3 3 7 6 5 6 6 7 6 7 8 9
10 11 10 10 8 7 8 9 8 8 7 7 1 2 2 4 5 7 3 3 5 4 4 5 2 4 3 1 3 0 2 4 3 6 4 4 6 11 6 6 5 2 2 3 4 4 7 7 7 9 11 10 10 8
11 12 11 11 9 8 9 7 7 7 3 2 2 3 2 0 2 4 4 4 3 5 5 5 8 6 2 3 3 2 3 3 4 4 5 3 6 4 6 7 4 4 4 1 1 3 3 5 8 7 9 8 9 11
11 13 9 9 10 8 9 8 8 1 1 1 2 2 2 3 2 4 4 3 6 6 4 5 6 5 3 2 2 3 4 3 7 4 3 4 5 4 7 5 5 5 3 1 3 5 4 5 7 8 7 9 10 9
12 12 9 7 12 10 9 10 8 5 6 1 4 3 3 2 6 6 7 5 4 3 4 4 4 4 3 4 3 4 5 6 3 3 4 6 2 4 6 5 4 4 1 4 5 5 7 6 4 6 8 7 9 10
13 12 10 8 9 13 11 10 9 7 3 4 5 6 7 5 6 7 5 3 4 2 3 2 1 4 2 4 4 5 3 1 2 0 7 3 4 5 5 4 3 2 1 2 5 8 9 10 9 6 6 4 7 10
10 12 12 10 10 11 13 10 8 2 4 4 4 6 7 6 3 2 3 1 3 2 3 1 2 2 3 4 4 1 2 5 5 6 4 3 3 4 4 3 3 3 3 2 4 5 6 8 7 6 6 6 7 8
11 12 5 11 13 14 12 1 1 3 3 4 6 4 3 1 3 2 3 2 2 2 1 1 3 2 5 4 5 7 3 6 5 3 3 2 4 4 4 3 2 3 3 4 5 5 7 7 7 6 6 7 5 6
14 3 5 8 11 12 7 2 1 4 7 7 5 3 4 3 3 3 2 2 1 3 2 1 2 9 1 3 4 4 6 5 4 3 3 6 6 5 5 3 2 3 4 5 5 6 5 6 6 2 4 6 7 8
4 6 14 13 4 3 3 3 2 4 5 3 2 3 3 3 3 3 3 2 3 3 3 4 1 3 5 4 4 4 3 2 3 3 5 4 5 4 2 2 2 3 4 5 5 6 5 5 7 6 6 7 8 7
6 6 12 12 3 1 3 3 4 4 5 3 3 3 4 3 5 6 4 4 4 3 3 2 7 4 8 4 5 3 3 3 3 3 3 2 3 4 1 1 3 3 4 5 5 3 3 5 5 3 5 6 7 7
17 16 15 14 5 3 4 4 2 3 3 4 2 5 5 6 6 4 6 5 4 3 5 6 9 8 3 4 4 4 4 4 4 2 3 2 1 3 1 1 2 3 3 4 4 3 4 5 2 5 6 7 8 9
11 5 11 3 3 6 4 3 3 3 3 3 2 2 3 2 3 4 5 4 4 5 5 5 4 5 7 6 4 3 4 5 7 5 4 2 3 2 1 1 1 2 2 2 3 3 3 3 5 6 6 7 7 9
4 9 1 6 5 5 4 3 3 1 2 2 4 5 7 7 7 6 3 6 5 8 5 4 7 7 6 6 6 7 5 5 4 3 5 5 2 1 1 1 2 1 1 2 3 3 4 5 6 6 7 7 8 8
6 3 3 4 5 5 3 2 3 4 1 3 2 3 3 3 4 0 4 5 7 5 7 5 4 4 4 1 3 4 3 6 4 4 3 3 2 2 3 2 2 1 1 2 3 3 4 6 6 6 7 7 7 7
5 5 7 5 6 6 1 2 2 3 2 2 3 4 4 3 5 1 5 4 5 1 3 5 4 2 2 2 2 3 2 3 4 3 2 4 3 1 2 2 2 1 1 2 3 3 4 5 7 7 7 7 7 7
4 6 6 5 3 4 2 1 2 2 4 5 2 5 5 2 4 7 12 14 5 4 3 1 2 2 3 2 2 2 3 3 5 4 2 2 3 2 2 1 1 1 2 2 3 3 5 5 4 5 7 6 9 11
7 7 7 8 4 6 6 5 5 7 4 3 5 4 1 1 2 8 5 5 5 4 4 5 5 3 1 2 3 3 3 3 4 3 2 3 4 4 3 2 1 3 1 1 1 3 5 6 6 8 9 10 9 9
7 6 4 5 4 4 1 1 2 4 5 6 4 2 3 5 7 7 4 2 1 2 2 2 3 3 3 3 1 2 4 4 3 3 4 4 3 2 4 4 3 3 1 2 2 3 4 6 6 7 9 10 7 6
3 1 7 6 4 2 6 3 5 7 4 3 3 3 5 3 4 3 4 4 2 2 4 4 4 3 4 3 3 5 6 5 8 8 6 5 3 2 2 1 0 3 2 2 3 3 4 5 6 7 7 9 11 8
4 3 5 4 3 2 5 6 7 5 5 3 5 8 5 3 1 2 1 2 3 1 3 4 4 4 6 5 5 4 3 4 6 4 4 3 2 3 0 1 2 2 2 3 6 5 7 5 4 5 7 7 8 8
6 5 4 3 6 6 7 6 5 4 2 4 2 2 3 3 2 1 1 2 2 3 3 3 3 4 4 4 2 3 3 2 1 4 4 4 5 2 1 1 3 3 2 3 4 5 7 5 5 5 5 6 5 8
5 5 3 5 6 6 6 3 1 2 1 2 1 3 4 4 4 2 3 3 3 4 4 3 2 2 5 3 3 3 0 2 2 4 4 4 3 2 1 2 2 1 1 2 3 3 3 4 3 4 7 9 10 8
4 8 7 5 7 3 1 4 4 3 2 1 3 1 1 1 4 4 2 4 4 3 4 4 4 4 4 2 2 1 2 6 4 3 5 3 2 0 1 2 2 2 2 3 3 3 3 3 4 5 7 9 10 10
3 3 3 3 1 1 3 4 3 2 0 3 4 4 4 4 7 5 3 1 4 6 6 4 3 4 6 5 5 4 5 4 5 5 5 5 5 4 3 2 2 3 4 4 4 3 5 6 4 6 8 9 10 11
Wind_Direction
341 341 21 274 270 272 282 268 264 283 278 263 196 221 232 233 259 148 207 176 202 247 252 209 190 210 258 181 230 266 4 345 29 123 155 248 249 280 294 274 281 277 219 213 183 211 291 205 348 2 257 287 304 307
337 10 326 287 290 278 282 287 250 286 264 263 260 267 228 246 259 215 210 191 198 236 264 226 223 233 224 227 224 192 207 208 227 85 333 319 327 306 270 280 266 259 214 288 210 239 267 310 217 273 224 251 300 301
21 13 345 342 330 311 281 265 259 269 290 276 263 266 235 257 258 190 176 152 119 258 287 265 242 252 224 226 206 227 227 207 233 174 180 234 253 171 237 241 275 285 201 241 268 255 253 279 293 262 287 277 281 305
4 11 16 6 338 302 288 295 272 265 272 293 304 245 260 271 254 236 164 180 140 195 259 276 312 222 206 187 200 212 220 45 110 136 185 225 229 193 235 245 254 254 327 278 268 286 302 277 311 343 320 349 12 359
347 355 5 8 12 12 333 290 270 280 276 272 282 274 277 272 251 226 175 192 181 168 235 282 295 284 243 213 198 197 210 208 194 244 224 223 226 233 243 258 251 212 235 208 267 282 239 281 302 328 336 358 4 352
322 338 339 347 351 347 349 353 338 314 285 280 262 272 255 243 114 81 351 289 190 120 317 325 277 276 274 192 202 208 197 181 194 192 215 226 225 184 262 252 216 219 231 243 272 280 282 283 233 74 53 1 340 332
266 279 297 310 323 322 318 319 329 341 331 301 264 253 254 256 145 155 191 196 151 138 91 296 283 267 278 125 85 79 172 181 169 230 234 234 221 216 268 267 271 263 285 283 291 293 306 15 21 27 22 334 331 311
286 261 268 284 302 297 304 309 305 312 309 339 321 255 245 256 216 238 185 140 141 124 180 262 271 328 189 263 211 165 147 187 200 222 241 203 190 202 246 244 250 257 287 258 336 7 28 342 348 349 352 352 339 331
284 301 265 251 282 300 307 310 307 294 290 316 319 260 35 127 217 230 208 175 180 144 190 233 196 257 349 262 231 204 193 199 188 209 227 166 188 225 230 212 243 288 272 316 338 311 353 358 337 324 318 315 316 331
301 270 294 244 261 276 287 291 305 302 300 300 23 83 250 219 172 129 129 169 189 186 204 237 190 251 105 208 294 207 244 234 237 231 131 215 247 252 227 204 144 179 287 336 338 347 346 338 332 326 323 321 324 322
302 301 284 243 249 265 278 284 282 321 326 125 178 229 250 315 177 202 221 181 158 219 213 226 201 220 232 180 206 205 229 225 246 244 172 244 258 225 148 142 144 199 212 67 312 276 311 324 311 320 315 331 321 321
305 306 284 254 253 263 273 278 274 160 263 52 323 272 251 216 232 206 214 217 206 230 194 189 203 194 221 158 175 191 233 182 246 147 193 254 255 159 157 163 167 165 147 30 355 335 334 334 326 318 315 317 317 308
302 305 291 270 251 262 268 280 277 240 290 157 226 219 195 221 217 203 203 213 219 210 189 182 195 186 184 180 202 205 213 230 114 195 230 234 227 145 146 141 153 181 180 312 315 319 323 319 309 315 305 307 308 313
306 296 290 289 262 261 266 278 271 259 164 224 211 218 216 207 231 208 209 177 228 172 203 211 230 199 179 188 237 255 210 200 284 265 233 243 198 160 152 151 147 230 226 287 306 319 320 324 323 314 296 295 308 310
305 297 288 296 281 273 261 275 298 193 153 234 202 232 214 228 231 225 233 241 236 217 150 141 261 192 197 236 219 311 313 251 211 229 243 278 145 140 154 168 191 234 249 313 298 293 302 312 303 301 316 310 305 300
296 297 284 296 286 275 252 292 216 188 215 234 223 250 253 319 278 212 197 248 227 163 96 84 243 212 234 219 190 215 214 217 246 222 230 176 153 169 193 200 241 276 287 266 272 275 300 297 294 288 305 300 295 298
295 212 279 320 332 319 216 167 230 249 213 213 216 205 214 226 235 239 198 227 127 93 203 143 246 225 352 248 223 187 203 217 211 229 201 194 188 195 176 218 267 302 307 297 293 290 283 292 294 282 312 293 294 294
247 258 276 281 304 280 167 184 241 266 265 284 216 239 208 223 219 205 216 210 147 187 124 214 195 252 241 220 247 246 233 248 198 192 225 206 219 199 161 228 298 302 291 285 282 280 287 310 317 311 297 286 297 288
244 240 271 268 230 204 190 200 211 243 243 236 228 216 219 224 221 242 209 200 197 177 135 223 230 216 224 227 235 252 237 211 222 226 230 234 149 150 167 21 316 306 311 314 329 350 320 307 312 307 304 312 308 304
269 271 273 281 199 194 221 212 191 243 247 235 247 253 240 241 252 220 228 205 187 188 205 217 227 238 218 237 197 215 214 189 154 178 260 267 190 138 215 231 261 289 326 347 342 343 341 330 336 337 329 319 310 308
266 257 279 229 214 190 237 211 198 223 245 245 263 310 286 301 249 230 240 198 193 208 228 216 212 239 233 237 207 192 212 175 203 182 187 201 223 166 202 323 79 47 31 344 323 321 329 294 311 322 316 310 310 307
208 239 213 198 227 204 218 227 234 247 228 252 299 273 261 255 264 256 230 225 222 229 213 213 236 238 243 234 227 203 183 149 137 106 89 106 122 164 151 131 87 37 352 306 323 304 315 320 323 314 312 304 309 307
220 205 221 218 203 205 238 162 191 192 210 266 252 249 278 260 240 104 239 231 245 216 223 214 214 201 216 193 125 105 126 142 146 140 134 129 116 112 122 105 95 105 330 295 319 323 323 317 313 313 308 308 310 310
197 221 192 220 173 203 159 187 233 203 192 205 225 261 288 276 315 319 242 258 259 255 208 215 154 100 68 130 160 159 160 142 112 93 112 130 120 75 125 121 107 83 322 309 330 324 318 308 310 319 312 309 311 308
226 216 183 186 180 92 125 289 227 161 209 231 228 291 283 306 232 248 265 275 255 256 282 222 162 159 157 143 124 169 233 147 148 150 235 132 114 73 63 72 229 224 342 17 340 324 313 304 300 302 313 310 316 318
228 214 200 173 185 159 182 167 201 209 193 210 238 248 349 178 256 253 238 218 219 210 216 191 165 138 175 168 150 180 206 152 117 112 229 163 154 147 164 157 315 297 0 74 318 303 304 305 308 316 313 314 309 309
209 220 186 216 175 159 93 303 180 129 176 208 241 272 194 231 246 255 299 285 196 234 213 160 153 154 167 160 98 70 103 105 118 146 112 105 92 109 135 162 216 239 314 336 280 232 270 298 298 301 302 306 294 283
229 203 175 193 207 174 162 146 163 182 181 237 130 194 241 218 280 309 299 314 286 12 64 55 50 75 92 86 99 104 83 94 91 90 87 71 66 62 75 85 355 329 321 267 252 260 250 262 280 290 295 295 303 305
194 199 130 196 281 191 182 174 193 217 194 176 250 267 256 249 239 198 211 280 307 65 82 85 36 62 72 65 48 37 81 136 128 129 180 231 319 262 55 3 334 341 340 329 312 298 287 286 292 294 293 292 294 297
214 159 131 132 163 214 234 176 204 231 210 195 186 325 296 273 241 161 194 173 187 206 190 143 130 111 142 123 114 50 24 12 166 149 170 217 221 173 149 337 324 314 336 346 321 318 338 8 332 344 339 337 335 333
161 150 122 161 209 230 221 210 351 103 80 214 350 212 259 314 303 247 182 179 145 137 112 113 81 135 129 136 141 129 292 314 56 90 93 99 116 132 210 282 273 314 1 8 356 359 346 351 353 339 344 344 336 332
156 178 162 197 239 277 121 165 188 191 231 172 239 283 351 21 270 278 235 120 115 146 216 156 149 209 187 125 96 72 99 122 140 137 122 114 106 0 335 341 8 63 74 46 26 12 16 10 351 353 343 336 331 328
73 82 98 111 48 239 246 123 204 234 187 233 243 198 205 186 232 255 298 190 179 182 182 170 115 110 122 121 120 103 90 102 124 124 120 104 96 78 56 37 52 66 77 61 29 18 23 18 6 348 343 337 331 328